Location: Stara Lesna
(49.1528°N, 20.2911°E)
Time: 09:06:40
(UTC+02:00)

Okean 1-7 - Pass Details

Date: 21 September 2019
Orbit: 590 x 620 km, 82.5° (Epoch: 17 October)

Event Time Altitude Azimuth Distance (km) Brightness Sun altitude
Rises 05:48:29 0° 207° (SSW) 2,885 6.1 -6.5°
Reaches altitude 10° 05:50:48 10° 214° (SW) 1,984 5.3 -6.1°
Maximum altitude 05:54:58 41° 286° (WNW) 900 3.5 -5.4°
Drops below altitude 10° 05:59:09 10° 357° (N) 1,990 5.7 -4.7°
Sets 06:01:29 0° 5° (N) 2,896 6.7 -4.4°
